Simultaneous Nadir Overpasses (SNOs) Predictions

Prediction of SNOs between METOP-A and TERRA Satellite Orbit:

Table of predicted SNOs for the next 14.0 days since TLE Epoch: 8/15/2020
Index Date (METOP-A) Time (METOP-A) Lat,Lon (METOP-A) SZA (METOP-A ) Date (TERRA) Time (TERRA) Lat,Lon (TERRA) SZA (TERRA ) Distance(km) Time Diff (sec)
1 08/16/2020 08:12:14 81.39, 105.94 70.76 08/16/2020 08:13:21 81.41, 106.00 70.81 1.77 67
2 08/16/2020 09:02:54 -81.39, -86.47 109.21 08/16/2020 09:02:48 -81.40, -86.48 109.20 1.55 6
3 08/19/2020 03:46:38 81.40, 172.26 71.67 08/19/2020 03:47:38 81.39, 172.16 71.69 1.56 60
4 08/19/2020 04:37:18 -81.39, -20.12 108.29 08/19/2020 04:37:05 -81.39, -20.28 108.31 2.82 13
5 08/21/2020 23:21:01 81.40,-121.43 72.61 08/21/2020 23:21:54 81.39,-121.45 72.63 0.49 53
6 08/22/2020 00:11:41 -81.39, 46.23 107.35 08/22/2020 00:11:21 -81.39, 46.13 107.37 1.64 20
7 08/24/2020 18:55:25 81.40, -55.13 73.58 08/24/2020 18:56:12 81.38, -55.22 73.58 2.18 47
8 08/24/2020 19:46:05 -81.39, 112.57 106.38 08/24/2020 19:45:39 -81.38, 112.39 106.42 3.04 26
9 08/27/2020 14:29:48 81.39, 11.55 74.60 08/27/2020 14:30:29 81.40, 11.62 74.64 2.04 41
